Temp
76 74 76 73 67 68 70 71 68 68 66 66 70 71 71 72 72 72 74 75 72 73 71 76 75 69 71 75 72 69 69 70 67 66 65 66 69 70 71 71 71 72 73
71 74 73 69 69 69 70 68 68 65 67 66 65 70 70 70 71 72 72 72 73 74 71 70 71 73 70 69 68 68 70 69 67 71 62 62 64 68 73 73 72 71 71
70 70 71 67 66 64 65 67 68 68 65 66 65 65 64 65 67 67 69 70 72 73 71 70 69 69 70 69 71 70 67 67 65 68 67 60 63 63 67 69 73 72 68
69 71 65 63 66 65 65 65 66 66 67 66 65 64 62 61 62 64 66 67 70 72 72 71 69 67 65 68 70 72 71 70 68 64 68 67 64 61 60 65 67 69 69
66 64 65 67 65 65 63 64 64 65 65 65 65 63 63 61 62 62 63 64 67 69 69 69 66 64 67 67 67 68 69 69 68 66 67 66 66 65 60 60 64 65 67
63 64 64 65 63 63 63 63 63 62 63 64 63 63 62 62 61 63 63 63 62 65 68 68 64 65 65 65 65 66 67 68 67 67 65 62 60 58 57 56 59 60 64
60 61 62 63 62 62 62 63 63 62 63 63 63 63 62 62 61 60 60 61 61 61 64 66 68 65 67 67 66 65 66 66 64 65 64 61 60 59 58 57 57 57 58
61 61 62 63 63 63 63 63 63 62 62 63 63 62 61 60 59 59 59 60 61 63 63 63 65 66 68 67 67 65 65 65 64 63 63 61 57 58 59 58 56 54 58
61 61 63 63 63 62 61 62 62 61 61 62 61 61 61 60 60 59 59 59 60 65 64 64 63 64 65 66 66 65 63 63 61 62 63 61 59 59 60 60 59 57 53
61 63 64 63 62 62 62 62 62 62 63 62 62 63 62 61 60 58 58 58 58 60 61 62 62 64 64 64 64 64 64 59 59 60 60 59 58 58 59 58 57 58 57
59 61 63 65 65 64 65 65 63 62 61 60 60 60 60 60 60 58 58 58 58 59 60 61 61 61 61 62 60 60 62 59 58 59 59 59 59 58 58 58 61 61 58
64 64 65 65 67 66 64 60 59 60 61 61 60 60 59 59 58 58 58 58 57 58 59 60 60 61 62 60 59 59 60 59 58 59 58 59 61 58 60 60 61 61 60
61 63 62 60 59 58 58 59 58 58 59 59 59 58 57 56 56 57 57 57 57 58 58 59 59 60 61 59 62 61 60 59 60 59 59 60 60 59 62 58 61 60 60
59 56 53 54 55 57 57 56 56 56 57 57 56 55 54 54 55 55 56 56 57 56 57 57 58 59 59 59 61 63 61 60 60 60 60 61 61 60 58 59 62 60 58
56 55 53 52 53 53 54 55 55 56 54 54 54 53 54 54 54 54 54 54 54 55 56 56 57 57 58 61 57 57 58 58 57 58 59 60 61 61 59 62 59 59 58
55 55 55 55 54 54 54 55 54 53 53 52 52 54 54 54 54 53 53 53 53 53 53 54 55 54 59 55 53 53 55 57 57 57 60 60 59 60 58 58 57 60 58
54 54 54 53 52 52 54 50 51 52 51 52 54 55 56 56 56 56 54 52 50 52 50 50 52 52 53 50 49 49 54 56 56 54 56 59 63 59 63 56 55 56 55
52 51 50 49 49 50 49 49 49 49 49 49 51 54 54 55 56 56 55 54 49 48 48 49 50 49 54 50 48 48 52 55 55 56 56 58 60 59 59 58 57 58 58
48 48 48 49 51 49 46 45 45 46 47 48 49 50 52 51 52 54 54 54 49 48 47 49 50 50 52 49 48 47 52 54 54 58 58 58 59 52 50 60 58 55 55
49 49 50 48 44 46 45 44 45 46 46 47 48 49 48 48 50 52 53 54 50 52 51 51 50 51 52 50 46 47 54 52 54 55 57 51 56 48 49 58 55 54 55
48 48 45 45 44 44 43 44 45 44 45 47 46 46 47 46 47 47 49 51 52 52 50 49 50 52 50 51 46 45 56 55 55 55 56 58 47 47 47 51 56 58 56
47 47 45 45 47 48 46 44 43 44 44 43 42 42 43 46 47 46 48 50 50 50 50 50 51 53 50 49 47 44 46 51 56 56 56 57 48 45 46 48 49 48 52
46 46 46 45 46 46 44 40 41 42 41 40 39 40 42 44 45 43 45 47 48 48 48 49 49 51 52 53 48 44 43 45 54 58 54 52 49 45 44 45 45 45 55
44 45 42 41 42 43 41 40 39 38 38 37 38 39 39 40 42 44 45 45 45 45 47 47 48 51 51 47 52 50 48 45 48 50 53 53 53 49 50 49 48 52 54
43 42 40 40 39 39 38 39 38 37 36 36 37 37 38 38 39 41 42 44 47 46 46 47 50 50 50 48 48 48 52 53 51 50 54 52 51 50 51 50 51 52 54
41 39 40 38 36 36 36 37 38 36 34 34 34 35 36 37 37 37 38 41 41 41 41 41 45 51 45 42 41 41 40 41 43 49 51 53 53 53 52 53 52 52 52
MSLP
1003.92 1003.96 1004.35 1005.00 1005.61 1005.82 1006.28 1006.69 1007.17 1007.48 1007.80 1007.98 1008.16 1008.41 1008.47 1008.44 1008.46 1008.46 1008.38 1008.68 1009.12 1009.31 1010.01 1009.98 1010.21 1010.49 1010.64 1010.82 1011.14 1011.37 1011.73 1011.60 1011.67 1012.30 1012.11 1011.72 1011.19 1011.01 1010.87 1010.47 1010.38 1010.43 1010.35
1004.25 1004.19 1004.33 1005.17 1005.62 1005.70 1006.13 1006.50 1006.92 1007.26 1007.33 1007.31 1007.61 1007.92 1008.30 1008.38 1008.58 1008.80 1008.90 1008.91 1008.56 1008.57 1009.36 1009.69 1009.72 1009.88 1010.16 1010.62 1011.23 1011.36 1011.44 1011.34 1011.27 1011.23 1011.87 1011.81 1011.35 1010.86 1010.21 1010.04 1010.18 1010.15 1010.11
1004.20 1004.07 1004.37 1005.28 1005.78 1006.08 1006.40 1006.80 1006.99 1007.19 1007.24 1007.10 1007.42 1007.74 1008.41 1008.63 1008.68 1008.65 1008.78 1009.02 1008.95 1008.43 1008.79 1008.93 1009.04 1009.12 1009.39 1009.49 1010.48 1010.70 1011.22 1011.29 1010.86 1010.72 1010.96 1011.17 1010.51 1010.27 1009.47 1009.41 1009.26 1009.31 1009.64
1003.56 1003.50 1004.44 1005.06 1005.63 1006.20 1006.10 1006.20 1006.43 1006.60 1006.84 1007.12 1007.56 1007.96 1008.54 1008.96 1008.85 1008.80 1008.54 1008.55 1008.74 1008.59 1008.35 1008.21 1008.59 1008.88 1009.12 1009.67 1009.01 1009.57 1009.72 1009.95 1010.39 1010.54 1010.17 1010.14 1010.38 1010.72 1010.30 1009.25 1008.55 1008.74 1009.11
1003.05 1003.41 1004.03 1004.85 1005.60 1006.18 1006.18 1006.30 1006.56 1007.01 1007.13 1007.23 1007.51 1008.06 1008.54 1008.80 1008.67 1008.61 1008.56 1008.64 1008.76 1008.75 1008.50 1008.26 1008.34 1008.50 1008.76 1008.96 1008.29 1008.42 1009.25 1009.31 1009.68 1009.69 1009.65 1010.24 1010.27 1010.65 1011.91 1010.31 1009.30 1009.02 1008.82
1003.53 1004.17 1004.58 1005.30 1006.09 1006.39 1006.54 1006.68 1006.99 1007.52 1007.51 1007.59 1007.81 1008.15 1008.51 1008.65 1008.66 1008.59 1008.56 1008.53 1008.57 1008.65 1008.41 1008.14 1008.08 1007.86 1008.09 1007.96 1008.11 1008.00 1008.23 1008.40 1009.03 1008.90 1009.36 1009.96 1010.58 1011.15 1011.11 1011.84 1011.92 1011.61 1010.64
1005.44 1005.74 1005.63 1005.96 1006.38 1006.68 1006.81 1006.85 1007.10 1007.64 1007.61 1007.62 1007.76 1007.98 1008.16 1008.23 1008.45 1008.77 1008.84 1008.69 1008.61 1008.80 1008.62 1008.20 1007.91 1007.80 1007.59 1007.35 1007.21 1007.41 1007.60 1007.99 1006.07 1007.62 1008.61 1009.51 1009.38 1009.45 1009.36 1010.36 1011.34 1012.31 1011.50
1006.34 1006.59 1006.43 1006.25 1006.50 1006.83 1006.97 1006.98 1007.16 1007.45 1007.51 1007.57 1007.59 1007.56 1007.72 1007.99 1008.19 1008.41 1008.68 1008.62 1008.53 1008.44 1008.46 1008.51 1008.23 1007.81 1007.47 1007.09 1006.77 1007.15 1007.32 1006.90 1006.09 1007.24 1007.48 1008.38 1008.58 1008.74 1008.78 1010.03 1010.76 1011.35 1010.93
1007.00 1007.02 1006.86 1006.72 1006.79 1006.96 1007.14 1007.14 1007.27 1007.47 1007.51 1007.30 1007.19 1007.13 1007.12 1007.43 1007.80 1007.81 1007.94 1008.12 1008.05 1007.94 1008.01 1008.00 1007.91 1007.68 1007.32 1006.80 1006.38 1006.39 1006.21 1006.13 1006.27 1006.45 1006.84 1007.27 1007.51 1007.64 1007.87 1008.52 1009.29 1009.53 1010.14
1007.56 1007.31 1007.28 1006.97 1006.95 1006.95 1006.93 1006.97 1007.07 1007.15 1006.99 1006.89 1006.76 1006.77 1006.76 1006.86 1007.07 1007.39 1007.64 1007.76 1007.80 1007.64 1007.68 1007.64 1007.40 1007.08 1006.72 1006.38 1005.94 1005.61 1005.30 1005.54 1005.56 1005.69 1006.13 1006.40 1006.50 1006.57 1006.95 1007.45 1007.98 1008.41 1009.19
1008.05 1007.72 1007.62 1007.33 1006.99 1006.70 1006.72 1006.69 1006.68 1006.65 1006.66 1006.73 1006.76 1006.77 1006.73 1006.64 1006.60 1006.78 1006.82 1006.86 1006.98 1007.10 1007.21 1007.19 1007.10 1006.84 1006.44 1006.05 1005.79 1005.55 1005.08 1005.00 1005.14 1005.23 1005.28 1005.32 1005.31 1005.66 1006.22 1006.96 1007.23 1007.36 1007.89
1007.54 1007.74 1007.73 1007.48 1006.97 1006.98 1007.01 1007.12 1006.79 1006.73 1006.49 1006.46 1006.51 1006.45 1006.30 1006.28 1006.29 1006.14 1006.01 1006.05 1006.25 1006.26 1006.38 1006.44 1006.48 1006.37 1006.05 1005.72 1005.39 1005.03 1004.76 1004.68 1004.63 1004.41 1004.55 1004.45 1004.58 1004.86 1005.26 1005.67 1005.82 1005.86 1006.33
1007.78 1007.57 1007.72 1007.89 1008.08 1008.01 1007.83 1007.75 1007.45 1007.32 1007.19 1006.96 1006.61 1006.28 1006.06 1005.93 1005.81 1005.65 1005.40 1005.33 1005.42 1005.49 1005.43 1005.52 1005.67 1005.69 1005.57 1005.34 1004.75 1004.34 1004.01 1003.95 1003.91 1003.88 1003.92 1003.64 1004.02 1004.07 1004.50 1004.86 1005.28 1005.55 1005.23
1008.13 1008.46 1008.53 1008.76 1008.53 1008.32 1008.14 1007.97 1007.76 1007.62 1007.42 1007.19 1007.09 1006.90 1006.64 1006.41 1006.11 1005.58 1005.17 1004.87 1004.67 1004.67 1004.57 1004.60 1004.66 1004.76 1004.79 1004.73 1004.38 1003.69 1003.47 1003.39 1003.17 1003.19 1003.33 1003.49 1003.79 1003.75 1003.90 1004.17 1004.50 1004.68 1005.02
1008.52 1008.57 1008.82 1008.76 1008.60 1008.19 1007.91 1007.70 1007.47 1007.25 1006.99 1006.82 1006.68 1006.50 1006.27 1006.06 1005.80 1005.54 1005.22 1004.82 1004.54 1004.35 1004.14 1004.07 1003.97 1003.95 1004.06 1004.04 1003.96 1003.69 1003.15 1002.72 1002.63 1002.72 1002.56 1002.63 1002.94 1003.08 1003.26 1003.36 1003.84 1004.30 1004.44
1008.93 1008.85 1008.86 1008.86 1008.45 1008.04 1007.82 1007.49 1007.14 1006.81 1006.58 1006.35 1006.09 1005.75 1005.55 1005.38 1005.21 1004.98 1004.77 1004.40 1004.11 1003.98 1003.91 1003.79 1003.66 1003.55 1003.38 1003.41 1003.28 1003.29 1003.24 1002.63 1002.21 1001.92 1001.71 1001.73 1001.81 1002.21 1002.24 1002.31 1002.87 1003.14 1004.03
1009.29 1009.11 1008.81 1008.57 1008.26 1007.91 1007.49 1007.14 1006.78 1006.46 1006.21 1005.89 1005.45 1005.09 1004.79 1004.54 1004.29 1004.10 1003.83 1003.56 1003.51 1003.46 1003.38 1003.25 1003.21 1002.99 1002.76 1002.85 1003.01 1002.80 1002.71 1002.62 1002.14 1001.54 1001.32 1001.07 1000.71 1001.10 1001.41 1002.02 1002.19 1002.44 1003.06
1009.33 1009.30 1009.04 1008.59 1008.11 1007.59 1007.14 1006.81 1006.63 1006.31 1006.04 1005.65 1005.12 1004.70 1004.34 1003.85 1003.38 1003.03 1002.79 1002.56 1002.55 1002.42 1002.42 1002.38 1002.36 1002.23 1002.00 1001.97 1002.20 1002.17 1002.08 1001.73 1001.30 1000.87 1000.86 999.93 1000.01 1000.51 1000.92 1001.13 1001.79 1002.55 1002.98
1009.52 1009.12 1008.61 1008.10 1007.66 1007.35 1007.19 1007.03 1006.75 1006.38 1005.87 1005.26 1004.71 1004.21 1003.73 1003.07 1002.55 1001.70 1001.32 1001.30 1001.35 1001.48 1001.52 1001.42 1001.57 1001.50 1001.32 1001.03 1001.04 1001.20 1001.16 1000.85 1000.38 1000.12 999.94 999.37 1000.27 1000.46 1000.22 1000.60 1001.55 1002.16 1002.56
1008.93 1008.51 1008.10 1007.89 1007.74 1007.36 1006.92 1006.67 1006.17 1005.65 1004.98 1004.37 1003.74 1003.37 1003.17 1002.38 1001.56 1001.01 1000.59 1000.28 1000.12 1000.29 1000.40 1000.46 1000.56 1000.61 1000.60 1000.33 1000.30 1000.39 1000.11 1000.10 999.73 999.36 999.59 999.94 1000.05 999.93 999.83 1000.20 1001.06 1001.95 1002.68
1008.62 1008.37 1008.08 1007.82 1007.46 1006.95 1006.54 1006.01 1005.51 1004.82 1004.46 1003.66 1003.05 1002.76 1002.21 1001.80 1001.26 1000.63 1000.25 999.86 999.30 999.26 999.46 999.71 999.79 999.75 999.75 999.58 999.57 999.97 999.53 999.23 998.70 998.58 999.10 998.86 999.85 999.40 999.75 999.99 1000.92 1001.20 1001.90
1008.32 1008.02 1007.74 1007.34 1006.81 1006.39 1005.96 1005.35 1004.74 1004.26 1003.76 1003.19 1002.52 1001.93 1001.42 1000.86 1000.38 999.80 999.05 998.67 998.58 998.46 998.46 998.68 998.65 998.72 998.69 998.83 998.92 999.32 999.28 998.79 999.13 999.01 998.69 999.41 999.32 999.75 999.41 999.99 1000.27 1001.07 1001.58
1008.30 1008.12 1007.66 1006.74 1006.21 1005.95 1005.73 1004.80 1004.01 1003.72 1003.19 1002.49 1001.67 1001.10 1000.60 1000.07 999.70 999.27 998.74 998.10 997.87 997.82 997.66 997.72 997.68 997.68 997.83 997.87 998.11 998.50 998.68 998.94 998.91 998.68 999.09 998.39 998.29 999.34 1000.05 1000.04 1000.75 1001.22 1001.60
1008.28 1007.73 1007.04 1006.34 1005.66 1005.49 1005.13 1004.44 1003.74 1003.40 1002.61 1001.63 1000.81 1000.15 999.67 999.12 998.79 998.34 997.81 997.40 997.30 997.16 997.05 996.90 996.64 996.64 996.84 997.16 997.41 997.84 997.99 998.34 998.77 998.85 999.19 999.00 998.28 998.38 999.31 1000.23 1000.55 1000.94 1001.56
1007.87 1007.45 1006.84 1006.07 1005.39 1004.92 1004.33 1003.72 1003.22 1002.63 1001.72 1000.74 999.91 999.31 998.82 998.31 997.73 997.46 997.03 996.55 996.14 996.18 996.05 995.92 995.99 996.04 996.25 996.75 996.91 997.28 997.59 997.62 997.62 998.22 998.37 998.66 998.90 999.11 999.14 999.55 999.98 1000.51 1001.30
1007.53 1007.01 1006.50 1005.97 1005.10 1004.38 1003.62 1002.86 1002.29 1001.69 1000.83 999.69 999.07 998.47 997.88 997.30 996.89 996.57 996.19 995.97 995.84 995.72 995.68 995.75 995.80 995.66 995.90 996.09 996.46 996.93 997.03 997.00 997.23 997.70 997.74 997.82 998.01 998.24 998.80 999.43 1000.07 1000.69 1000.99
Wind_Speed
11 7 7 8 3 7 10 12 10 9 5 2 3 2 4 3 2 3 5 6 6 8 9 9 8 5 8 9 5 5 7 8 3 1 3 4 6 7 6 5 5 6 7
8 9 8 9 13 13 14 11 9 7 4 3 2 3 1 1 3 3 5 5 7 9 7 7 6 4 4 3 5 5 8 4 6 7 2 4 5 4 9 7 7 9 4
14 10 9 6 5 5 7 8 10 10 7 6 3 3 2 2 1 3 2 2 5 8 5 8 6 4 3 4 10 7 7 10 5 9 6 2 8 0 3 9 8 8 5
11 11 7 8 11 8 7 8 8 6 4 5 4 4 3 1 2 2 1 4 4 6 7 11 8 5 8 9 8 10 12 12 14 4 9 6 1 3 4 3 4 6 7
9 10 11 11 9 7 7 8 9 8 6 6 5 4 2 2 2 2 2 1 2 4 5 6 4 5 7 8 9 8 12 10 12 7 7 8 3 5 6 5 5 3 4
10 8 8 11 8 7 8 8 9 6 7 7 6 6 4 3 3 4 4 4 1 2 5 5 7 10 9 10 11 10 12 10 4 3 4 3 4 4 5 6 14 8 10
10 8 9 9 7 8 7 7 8 6 6 7 5 4 3 3 2 2 3 6 3 0 4 4 4 6 10 12 14 13 13 10 10 12 8 7 8 4 3 8 8 7 5
8 7 6 7 7 7 7 7 6 5 5 6 6 4 5 3 1 0 0 2 2 4 3 5 6 7 6 8 13 12 13 13 12 15 9 8 7 4 5 5 6 3 3
8 7 6 7 6 4 3 4 3 2 6 7 6 5 4 4 4 2 1 1 1 3 5 6 4 7 8 9 10 10 11 10 9 12 12 7 6 7 7 9 9 8 7
9 7 6 5 4 4 3 2 4 6 8 7 5 5 6 5 5 4 4 2 3 1 3 5 6 8 7 10 10 9 9 7 7 7 11 10 6 8 7 7 7 8 10
7 6 5 2 2 1 3 3 4 4 4 6 5 5 6 7 6 5 5 4 3 3 3 3 4 5 6 8 6 9 10 7 7 8 12 13 10 9 8 9 8 10 10
7 4 5 7 5 5 7 7 5 4 5 6 6 7 6 6 6 6 6 5 6 5 6 6 4 5 6 8 8 9 9 10 10 12 10 14 10 11 12 9 10 9 12
3 3 3 5 6 7 7 7 8 7 7 7 6 6 7 7 8 7 7 7 6 6 5 5 5 5 6 7 10 10 10 11 11 11 12 14 10 11 9 6 6 4 4
6 7 7 5 5 5 6 6 6 5 6 5 5 6 7 7 7 7 7 7 7 7 6 6 6 6 6 6 10 11 9 8 9 10 11 12 11 12 8 6 7 5 4
7 6 3 4 4 5 6 6 5 5 4 5 6 7 7 7 7 7 7 7 5 5 6 6 5 6 6 6 6 5 6 8 8 6 9 10 9 11 8 5 6 7 5
5 5 5 6 7 7 7 7 7 7 5 7 7 7 7 7 7 7 7 7 6 5 5 5 5 6 5 10 13 6 5 6 6 7 9 10 9 13 16 15 13 12 9
6 7 7 8 7 8 9 8 7 7 7 9 10 10 10 13 13 12 10 8 7 6 7 7 6 7 6 9 13 13 8 9 7 5 4 7 7 12 14 15 15 15 13
6 7 7 7 8 8 8 7 6 6 6 8 9 11 12 14 14 15 16 13 7 8 7 7 8 7 8 11 16 16 11 10 10 6 5 4 10 10 11 11 9 8 8
6 7 7 9 10 8 5 6 7 8 11 14 15 16 18 20 22 22 17 11 8 8 7 6 7 9 8 12 16 11 8 10 9 4 3 6 8 14 14 12 10 7 5
8 9 10 7 5 8 7 9 12 13 17 18 18 16 17 19 17 16 14 15 9 10 7 7 8 11 12 11 15 11 6 6 4 2 2 9 11 18 13 10 9 8 7
8 8 6 8 8 8 8 13 17 17 19 19 15 18 15 17 19 19 17 12 9 7 7 7 9 11 11 9 11 16 9 6 4 2 4 5 8 16 15 10 8 10 7
8 8 7 10 12 14 13 17 21 18 18 18 18 18 16 14 13 16 13 13 13 12 10 11 10 9 7 11 9 15 16 11 7 7 5 9 15 12 15 11 12 11 9
7 9 13 17 16 14 14 19 19 18 18 18 17 16 16 14 13 13 13 11 11 10 9 9 10 9 8 8 12 13 17 17 8 7 14 24 17 15 5 5 8 7 6
11 14 16 18 17 16 18 16 16 17 18 18 17 15 14 14 13 11 10 11 11 10 10 11 10 8 6 4 4 4 6 9 9 9 9 14 18 8 8 6 8 6 3
13 14 15 15 19 18 18 16 15 16 16 16 14 13 11 12 11 12 11 10 12 10 9 9 8 8 7 6 8 7 6 5 7 8 7 4 4 5 3 1 2 4 5
15 15 15 18 19 17 18 17 14 14 15 15 11 10 10 10 9 10 10 15 18 17 13 13 11 7 2 9 13 11 9 11 8 4 4 6 4 7 7 7 6 5 7
Wind_Direction
224 225 213 162 161 156 166 174 165 186 171 148 162 220 225 252 274 249 225 229 217 218 220 232 227 200 230 235 197 189 201 234 185 77 298 268 233 244 247 232 233 237 233
257 236 225 157 177 170 178 165 168 174 179 141 154 136 123 291 273 288 282 219 217 221 206 218 233 201 214 229 252 231 244 249 191 217 145 268 305 249 239 233 234 242 232
229 239 215 163 148 126 135 151 164 162 170 150 117 93 65 23 348 316 330 348 279 260 227 188 200 205 184 212 254 238 232 263 261 222 195 200 231 204 212 230 229 231 213
236 226 137 141 144 154 142 133 141 135 111 130 106 120 149 201 228 230 249 324 309 300 263 239 212 238 301 280 252 249 241 227 247 240 244 257 360 201 295 276 235 225 223
205 151 136 128 120 127 119 102 94 92 99 93 101 96 85 223 286 290 324 246 287 250 252 261 241 241 228 233 228 247 265 256 256 234 268 232 251 346 329 304 330 353 248
122 104 98 109 115 114 112 107 102 101 103 101 93 88 65 322 332 317 327 316 338 311 291 247 239 239 241 244 250 262 261 254 296 267 247 199 173 197 133 8 331 328 324
58 69 96 105 114 115 118 118 118 128 132 113 98 87 76 50 338 317 307 321 324 8 252 277 290 242 244 249 249 252 247 226 203 224 215 186 194 198 181 182 227 251 321
93 84 84 93 115 129 133 130 134 149 169 160 171 161 137 135 147 155 66 304 314 320 275 227 254 259 258 247 239 235 232 225 207 210 210 200 207 186 156 160 169 253 170
47 59 63 65 86 119 131 153 171 202 208 203 196 203 189 175 196 235 153 204 272 325 351 324 272 242 251 253 236 223 228 226 208 204 209 192 187 189 196 194 201 200 230
12 18 30 95 103 110 136 170 199 222 226 227 223 225 233 229 224 202 230 247 252 4 338 327 329 322 290 251 251 250 244 198 202 196 198 201 186 183 178 192 200 212 217
325 346 345 299 255 235 230 230 228 239 221 221 237 244 253 251 247 233 242 243 220 236 253 256 309 320 325 304 256 249 253 234 211 195 189 198 192 190 182 190 218 199 184
262 269 303 288 268 304 334 303 289 267 231 211 207 216 225 236 242 245 248 245 241 233 218 215 240 267 282 290 255 252 244 228 214 213 202 211 204 204 198 197 209 196 193
253 271 331 349 347 2 11 360 354 339 331 320 285 254 238 229 227 235 242 242 245 252 249 208 227 251 271 285 272 245 241 231 224 216 213 220 212 221 202 194 206 229 181
42 61 53 34 23 14 6 357 344 337 335 341 320 302 296 285 275 262 252 244 243 247 253 235 228 234 245 258 281 270 245 236 224 221 223 232 232 235 210 184 204 209 189
28 25 359 334 313 322 321 308 287 297 302 304 298 286 277 271 273 272 269 273 271 266 274 280 263 248 248 249 250 266 266 237 251 233 230 231 220 217 218 184 189 188 164
345 321 289 279 291 291 277 270 270 273 266 267 262 260 267 271 265 262 264 260 252 249 254 270 275 273 269 261 244 228 253 242 225 242 254 237 231 232 238 232 189 180 173
299 286 298 302 293 284 281 261 259 268 263 264 267 269 273 275 275 268 252 241 236 230 242 248 253 263 257 251 241 235 231 239 226 191 257 267 240 224 232 234 196 176 181
319 312 297 293 285 275 278 283 288 292 285 280 284 285 282 278 276 274 264 249 223 222 219 224 235 246 262 242 245 235 228 235 252 230 192 304 272 228 176 162 149 161 165
281 259 259 274 298 311 315 307 300 292 294 291 287 283 280 283 278 268 259 251 222 227 220 220 241 248 253 243 246 231 222 229 237 226 241 352 241 203 167 151 156 152 200
276 288 290 303 312 282 269 277 285 288 289 292 287 286 284 269 273 280 279 264 221 227 217 224 226 237 255 262 244 211 220 230 249 187 229 216 221 181 164 149 150 152 213
289 293 293 280 267 276 275 287 293 289 299 291 299 292 283 291 285 276 272 278 253 229 229 234 249 250 232 241 233 215 219 231 260 309 302 296 242 163 168 151 163 180 153
308 299 299 301 301 295 296 300 294 297 296 293 288 286 281 273 286 283 273 258 254 249 241 249 252 239 222 225 227 213 221 211 208 209 285 250 234 219 178 170 170 164 151
313 320 307 299 304 303 307 300 296 301 296 291 285 283 282 276 279 283 286 268 250 247 246 250 249 234 226 228 215 201 207 225 209 209 210 240 235 194 199 143 130 154 159
312 311 308 304 304 314 302 291 297 295 291 287 285 283 275 273 270 269 260 252 252 250 248 245 237 226 209 208 228 197 196 215 202 234 231 226 229 178 169 162 139 164 201
311 312 306 303 307 307 302 299 296 292 289 286 283 279 273 269 268 263 258 260 244 237 240 234 233 228 222 209 204 209 204 199 188 173 225 183 175 165 161 125 200 159 186
313 308 307 311 305 303 302 300 296 287 285 285 283 275 271 268 260 258 261 250 259 274 278 274 260 243 47 167 145 124 124 112 132 166 175 201 190 177 164 174 171 173 192